[[{"header":{"parameterUnit":"m.s-1","parameterCategory":1,"la1":30.2991,"la2":30.254,"lo1":-89.0895,"lo2":-89.0444,"dy":0.0017,"dx":0.0017,"nx":28,"ny":28,"refTime":"2025-02-05T09:00:00:Z","depth":0,"parameterNumber":2,"parameterNumberName":"U-component_of_WINDS"},"data":[0,0,0,0,0,0,0,0,0,0,0,0,0,0,0,0,0,0,0,0,0,0,0,0,0,0,0,0,0,0,0,0,0,0,0,0,0,0,0,0,0,0,0,0,0,0,0,0,0,0,0,0,0,0,0,0,0,0,-1.537,-1.5369,0,-1.5318,-1.5317,-1.5317,-1.5265,-1.5264,-1.5264,-1.5263,-1.521,-1.5209,-1.5208,0,0,0,0,0,0,0,0,0,0,0,0,0,-1.5422,-1.5422,-1.537,-1.5369,-1.5368,-1.5318,-1.5317,-1.5317,-1.5265,-1.5264,-1.5264,-1.5263,-1.521,-1.5209,-1.5208,0,0,0,0,0,0,0,0,0,0,0,0,0,-1.5388,-1.5421,-1.537,-1.5337,-1.5333,-1.5318,-1.5317,-1.5317,-1.5265,-1.5264,-1.5263,-1.5262,-1.521,-1.5209,-1.5208,-1.5222,0,0,-1.5205,-1.5204,0,0,0,0,0,0,0,0,-1.539,-1.5386,-1.5342,-1.5339,-1.5335,-1.5297,-1.5316,-1.5285,-1.5266,-1.5291,-1.5263,-1.5262,-1.524,-1.5236,-1.5229,-1.5219,-1.5217,-1.5205,-1.5204,-1.5203,-1.5203,0,0,0,0,0,0,0,-1.5392,-1.5388,-1.5349,-1.5342,-1.5337,-1.5324,-1.5318,-1.531,-1.5272,-1.5289,-1.5285,-1.528,-1.5237,-1.523,-1.5227,-1.5216,-1.5205,-1.5204,-1.5203,-1.5202,-1.5213,-1.5214,0,0,0,0,0,0,-1.54,-1.539,-1.5351,-1.5348,-1.5361,-1.5324,-1.5317,-1.531,-1.5272,-1.5265,-1.5281,-1.5277,-1.5232,-1.5228,-1.5225,-1.5237,-1.5203,-1.5202,-1.5202,-1.5212,-1.5214,-1.5215,0,0,0,0,0,0,-1.5401,-1.5397,-1.5353,-1.5368,-1.5361,-1.5324,-1.5317,-1.531,-1.5302,-1.5265,-1.5258,-1.528,-1.5231,-1.5227,-1.5223,-1.5234,-1.5202,-1.5201,-1.5211,-1.5213,-1.5214,-1.5261,0,0,0,0,0,0,-1.5403,-1.5398,-1.5403,-1.5368,-1.5361,-1.5352,-1.5317,-1.5309,-1.53,-1.5296,-1.5263,-1.5257,-1.523,-1.5225,-1.5221,-1.5232,-1.52,-1.521,-1.5212,-1.5214,-1.5259,-1.5264,-1.5269,0,0,0,0,0,-1.5405,-1.5419,-1.5403,-1.5399,-1.5366,-1.5353,-1.5348,-1.5318,-1.5301,-1.5306,-1.5282,-1.5258,-1.5234,-1.5225,-1.5221,-1.5231,-1.5209,-1.5211,-1.5214,-1.5256,-1.5263,-1.5269,0,0,0,0,0,0,-1.5455,-1.5413,-1.5396,-1.5399,-1.538,-1.5344,-1.5349,-1.5326,-1.5311,-1.5308,-1.527,-1.5263,-1.5263,-1.5247,-1.5237,-1.5241,-1.5218,-1.5219,-1.5252,-1.5258,-1.5263,-1.5266,-1.5199,0,0,0,0,0,-1.5467,-1.546,-1.5423,-1.5429,-1.542,-1.5386,-1.5379,-1.5357,-1.5336,-1.5328,-1.5304,-1.5284,-1.5271,-1.5264,-1.5251,-1.5257,-1.5248,-1.5262,-1.5267,-1.5272,-1.5273,-1.5273,-1.5278,-1.5222,-1.5222,-1.5222,0,0,-1.549,-1.5466,-1.5464,-1.5439,-1.5421,-1.5414,-1.538,-1.5374,-1.5367,-1.5327,-1.5321,-1.5303,-1.5278,-1.5278,-1.5277,-1.5264,-1.5286,-1.5274,-1.5278,-1.5277,-1.5276,-1.5281,-1.5286,-1.5224,-1.5223,-1.5223,0,0,-1.5529,-1.5511,-1.5513,-1.5496,-1.547,-1.5447,-1.5448,-1.5415,-1.5401,-1.5395,-1.5364,-1.5356,-1.5336,-1.5319,-1.5308,-1.5339,-1.5315,-1.5336,-1.5363,-1.5363,-1.5368,-1.5371,-1.5381,-1.5385,-1.5338,-1.5338,-1.5338,0,-1.5561,-1.5549,-1.5517,-1.5512,-1.5501,-1.5464,-1.5465,-1.545,-1.5421,-1.5414,-1.5401,-1.5374,-1.5355,-1.535,-1.5357,-1.535,-1.5349,-1.5339,-1.537,-1.5373,-1.5376,-1.5385,-1.5388,-1.534,-1.534,-1.534,-1.534,0,-1.5589,-1.5581,-1.5586,-1.5558,-1.5548,-1.5546,-1.5513,-1.5507,-1.5486,-1.5465,-1.5458,-1.5433,-1.5414,-1.5411,-1.5391,-1.5403,-1.5396,-1.5377,-1.5352,-1.5384,-1.5392,-1.5395,-1.5344,-1.5343,-1.5342,-1.5342,0,0,-1.5657,-1.5611,-1.5613,-1.56,-1.5568,-1.5561,-1.5557,-1.5538,-1.5533,-1.5514,-1.5509,-1.5493,-1.5474,-1.5462,-1.5439,-1.544,-1.5464,-1.542,-1.5419,-1.5428,-1.5474,-1.5487,-1.5491,-1.5449,-1.5449,-1.545,-1.5475,0,-1.5689,-1.568,-1.565,-1.565,-1.5641,-1.5606,-1.5602,-1.5582,-1.5562,-1.5551,-1.5529,-1.5517,-1.5495,-1.5486,-1.5486,-1.5462,-1.5473,-1.5459,-1.5442,-1.5442,-1.5448,-1.5495,-1.551,-1.5535,-1.5478,-1.5478,-1.5479,0,-1.5724,-1.5707,-1.5706,-1.5673,-1.5669,-1.5666,-1.5645,-1.5636,-1.5612,-1.5597,-1.5583,-1.5558,-1.5551,-1.5529,-1.5519,-1.551,-1.5502,-1.5489,-1.5489,-1.5485,-1.5461,-1.5491,-1.5542,-1.5546,-1.5483,-1.5483,-1.5483,0,-1.5772,-1.5749,-1.5745,-1.5734,-1.5697,-1.5695,-1.568,-1.5655,-1.5645,-1.5627,-1.5619,-1.5601,-1.5591,-1.5577,-1.5547,-1.5535,-1.5539,-1.5516,-1.5525,-1.5526,-1.5527,-1.5527,-1.5576,-1.5525,-1.5525,-1.5524,-1.5524,0,-1.5809,-1.581,-1.5765,-1.5763,-1.5761,-1.5728,-1.5727,-1.5708,-1.5686,-1.5678,-1.5647,-1.564,-1.5602,-1.5591,-1.5568,-1.5561,-1.5557,-1.5544,-1.5538,-1.5546,-1.5547,-1.5539,-1.5535,-1.5525,-1.5525,-1.5525,-1.5525,0,-1.5862,-1.5832,-1.5825,-1.579,-1.5781,-1.5781,-1.5751,-1.5746,-1.5724,-1.5715,-1.5711,-1.5676,-1.5661,-1.563,-1.5607,-1.5591,-1.5589,-1.5579,-1.5597,-1.5593,-1.5604,-1.5603,-1.5648,-1.5651,-1.56,-1.56,-1.5601,0,-1.5887,-1.5886,-1.585,-1.5843,-1.5828,-1.5817,-1.5806,-1.5773,-1.5763,-1.5735,-1.5733,-1.5716,-1.57,-1.5678,-1.565,-1.5632,-1.5619,-1.5636,-1.5616,-1.5624,-1.5617,-1.5617,-1.5616,-1.564,-1.5641,-1.5642,-1.5642,0,-1.5934,-1.5919,-1.5905,-1.5885,-1.5873,-1.5857,-1.5838,-1.5834,-1.5796,-1.5786,-1.577,-1.5758,-1.5734,-1.5716,-1.5694,-1.5677,-1.5653,-1.5649,-1.565,-1.5657,-1.5667,-1.566,-1.5608,-1.5648,-1.5647,-1.5647,-1.5646,-1.5646,-1.5972,-1.5969,-1.5943,-1.5928,-1.591,-1.5893,-1.5887,-1.5864,-1.585,-1.5827,-1.5809,-1.5794,-1.5769,-1.5736,-1.572,-1.5708,-1.5696,-1.5698,-1.5699,-1.5699,-1.5702,-1.5671,-1.5704,-1.5704,-1.5704,-1.5703,-1.5703,0,-1.6016,-1.5997,-1.5984,-1.5958,-1.5946,-1.5925,-1.5903,-1.5894,-1.5882,-1.586,-1.5845,-1.5826,-1.5809,-1.578,-1.5759,-1.5755,-1.5743,-1.5751,-1.575,-1.5746,-1.5714,-1.5714,-1.576,-1.576,-1.576,-1.576,-1.576,-1.576,-1.6037,-1.603,-1.6012,-1.5996,-1.5977,-1.5962,-1.5951,-1.5935,-1.5917,-1.5898,-1.5883,-1.5864,-1.5839,-1.5817,-1.58,-1.5791,-1.5785,-1.5795,-1.5783,-1.5754,-1.5748,-1.5743,-1.5743,-1.5794,-1.5794,-1.5816,-1.5816,-1.5816]},{"header":{"parameterUnit":"m.s-1","parameterCategory":1,"la1":30.2991,"la2":30.254,"lo1":-89.0895,"lo2":-89.0444,"dy":0.0017,"dx":0.0017,"nx":28,"ny":28,"refTime":"2025-02-05T09:00:00:Z","depth":0,"parameterNumber":3,"parameterNumberName":"V-component_of_WINDS"},"data":[0,0,0,0,0,0,0,0,0,0,0,0,0,0,0,0,0,0,0,0,0,0,0,0,0,0,0,0,0,0,0,0,0,0,0,0,0,0,0,0,0,0,0,0,0,0,0,0,0,0,0,0,0,0,0,0,0,0,1.6663,1.6663,0,1.6716,1.6716,1.6717,1.6732,1.6732,1.6731,1.6731,1.6784,1.6786,1.6788,0,0,0,0,0,0,0,0,0,0,0,0,0,1.6574,1.6575,1.6662,1.6663,1.6664,1.6716,1.6716,1.6717,1.6732,1.6732,1.6731,1.6731,1.6784,1.6786,1.6788,0,0,0,0,0,0,0,0,0,0,0,0,0,1.6618,1.6576,1.6662,1.6678,1.6679,1.6716,1.6716,1.6717,1.6732,1.6732,1.6731,1.6731,1.6783,1.6786,1.6788,1.6813,0,0,1.6796,1.6797,0,0,0,0,0,0,0,0,1.6616,1.6621,1.6675,1.6677,1.6679,1.6717,1.6705,1.6749,1.6732,1.6712,1.6731,1.6731,1.6762,1.6766,1.6777,1.6815,1.6817,1.6796,1.6798,1.6799,1.6799,0,0,0,0,0,0,0,1.6613,1.6619,1.6684,1.6675,1.6678,1.6682,1.6688,1.6713,1.6739,1.6714,1.6715,1.6721,1.6763,1.6775,1.6779,1.6818,1.6796,1.6798,1.68,1.6801,1.688,1.6881,0,0,0,0,0,0,1.6607,1.6616,1.6682,1.6685,1.6646,1.6684,1.669,1.6705,1.6739,1.6743,1.6722,1.6722,1.6771,1.6776,1.6781,1.6813,1.6799,1.6801,1.6803,1.688,1.688,1.6881,0,0,0,0,0,0,1.6605,1.6613,1.668,1.6651,1.666,1.6686,1.6702,1.6706,1.6718,1.6745,1.6749,1.6729,1.6771,1.6777,1.6805,1.6815,1.6802,1.6805,1.6879,1.688,1.6881,1.6876,0,0,0,0,0,0,1.6602,1.6612,1.6621,1.6651,1.6662,1.6703,1.6703,1.6708,1.6722,1.6723,1.6752,1.6757,1.6771,1.6801,1.6808,1.6818,1.6807,1.6878,1.6879,1.688,1.6876,1.6877,1.6878,0,0,0,0,0,1.6599,1.6617,1.6622,1.6629,1.6674,1.6704,1.671,1.6725,1.6723,1.6733,1.675,1.6756,1.6812,1.6804,1.6811,1.6823,1.6878,1.6879,1.688,1.6875,1.6877,1.6878,0,0,0,0,0,0,1.6587,1.6621,1.6627,1.6655,1.6677,1.6706,1.6719,1.6726,1.6748,1.6748,1.6767,1.6773,1.68,1.6814,1.6804,1.6849,1.6845,1.6848,1.6839,1.6841,1.6842,1.6838,1.6809,0,0,0,0,0,1.6588,1.6609,1.6638,1.666,1.6671,1.6693,1.6707,1.6717,1.674,1.6749,1.6768,1.679,1.6813,1.6827,1.6849,1.6878,1.6885,1.6889,1.689,1.6891,1.6894,1.6911,1.6914,1.6885,1.6885,1.6885,0,0,1.6589,1.6611,1.6623,1.6658,1.6676,1.6699,1.6701,1.6723,1.674,1.6752,1.678,1.6795,1.6821,1.6849,1.6863,1.6862,1.6903,1.6893,1.6893,1.6895,1.6913,1.6915,1.6918,1.6886,1.6886,1.6886,0,0,1.6604,1.6621,1.6643,1.6661,1.6688,1.6703,1.6708,1.6738,1.6748,1.6777,1.6787,1.6807,1.6845,1.6863,1.6878,1.69,1.6907,1.6907,1.6913,1.693,1.6932,1.6934,1.6944,1.6947,1.6909,1.6909,1.6909,0,1.6602,1.6636,1.6653,1.6676,1.6692,1.6704,1.6727,1.6743,1.6776,1.6787,1.6785,1.6835,1.6853,1.6887,1.6892,1.6903,1.691,1.6904,1.6931,1.6933,1.6935,1.6944,1.6948,1.6909,1.6909,1.6909,1.6909,0,1.6633,1.6657,1.6671,1.6703,1.6721,1.6743,1.6764,1.6779,1.6788,1.6804,1.6833,1.6855,1.6883,1.6891,1.69,1.6927,1.6926,1.6927,1.6924,1.6938,1.6947,1.695,1.6909,1.6909,1.6909,1.6909,0,0,1.6641,1.6684,1.6689,1.6705,1.6736,1.6755,1.6778,1.6806,1.6819,1.6842,1.6862,1.6895,1.6897,1.6914,1.6924,1.6939,1.6958,1.6939,1.694,1.6943,1.699,1.699,1.6994,1.6962,1.6962,1.6963,1.6988,0,1.666,1.6703,1.672,1.6755,1.6777,1.679,1.6811,1.6833,1.6848,1.6869,1.6885,1.6909,1.6909,1.6919,1.6934,1.6952,1.6968,1.695,1.6982,1.6983,1.6976,1.6998,1.6998,1.702,1.6992,1.6993,1.6993,0,1.6688,1.6713,1.675,1.6781,1.6791,1.6809,1.6837,1.6857,1.6882,1.6892,1.6911,1.6921,1.6947,1.6941,1.6977,1.6965,1.6979,1.699,1.6991,1.6995,1.6989,1.7004,1.7028,1.7032,1.6998,1.6998,1.6998,0,1.6692,1.6734,1.6762,1.6775,1.6811,1.6824,1.6839,1.6864,1.688,1.6904,1.6915,1.6941,1.6956,1.6976,1.6994,1.6988,1.7028,1.7024,1.7038,1.7038,1.7046,1.7046,1.7074,1.7053,1.7053,1.7053,1.7053,0,1.6713,1.6735,1.6765,1.6782,1.6808,1.6827,1.6853,1.6869,1.6891,1.6912,1.6924,1.6944,1.6965,1.6988,1.7001,1.703,1.7036,1.7045,1.7049,1.7045,1.7044,1.7055,1.7054,1.7054,1.7054,1.7054,1.7053,0,1.6721,1.6742,1.6774,1.6806,1.6814,1.6832,1.6859,1.6877,1.6893,1.692,1.6927,1.6952,1.6979,1.6998,1.7033,1.7042,1.7073,1.7076,1.7065,1.7067,1.708,1.7079,1.7117,1.7124,1.7097,1.7098,1.7098,0,1.6733,1.6752,1.6786,1.6801,1.6817,1.6842,1.6859,1.6878,1.6895,1.6927,1.6941,1.6969,1.6993,1.7035,1.7057,1.7083,1.7088,1.7099,1.7092,1.7088,1.709,1.7089,1.7091,1.7101,1.7101,1.7101,1.7101,0,1.6753,1.6763,1.6787,1.6816,1.6836,1.6859,1.6883,1.6895,1.6918,1.6937,1.6966,1.6984,1.702,1.7049,1.7078,1.7094,1.7102,1.7103,1.7108,1.7105,1.7098,1.7104,1.7069,1.7102,1.7102,1.7102,1.7102,1.7102,1.6765,1.6783,1.681,1.6837,1.6857,1.6879,1.6898,1.6917,1.6941,1.6973,1.6983,1.7013,1.7038,1.7079,1.7095,1.7119,1.7118,1.7125,1.7127,1.7129,1.7129,1.7094,1.7124,1.7124,1.7124,1.7124,1.7124,0,1.6787,1.6806,1.6831,1.6864,1.6885,1.6892,1.6918,1.6936,1.6962,1.6986,1.701,1.7043,1.7071,1.7095,1.7124,1.7138,1.7143,1.7145,1.7145,1.7149,1.7127,1.7121,1.7141,1.7141,1.7141,1.7141,1.7141,1.7141,1.6801,1.6831,1.6845,1.6885,1.6904,1.6934,1.6949,1.6969,1.6989,1.7026,1.7049,1.7065,1.7089,1.712,1.7146,1.7152,1.7163,1.7165,1.7172,1.7152,1.715,1.7148,1.7142,1.7167,1.7167,1.7192,1.7192,1.7192]}]]